This demonstration page uses our WeatherBlox Daily Observations layout. Learn more.

36.17497, -115.13722

Hourly Observations for August 1, 2019

Temp ( °F °C ) Dew Point ( °F °C ) Humidity (%) Winds ( mph kmh ) Pressure ( in mb ) Visibility ( mi km ) Precip ( " mm )
12:53 am 00:53 Clear 83 28.3 60 15.6 46 46 SW 5 7 29.94 1014 10 16.0934 0 0
1:53 am 01:53 Clear 84 28.9 61 16.1 46 46 Calm 29.93 1014 10 16.0934 0 0
2:53 am 02:53 Clear 83 28.3 60 15.6 46 46 SSE 3 6 29.93 1013 10 16.0934 0 0
3:53 am 03:53 Clear 81 27.2 60 15.6 49 49 ESE 6 9 29.93 1014 10 16.0934 0 0
4:53 am 04:53 Clear 79 26.1 60 15.6 52 52 E 6 9 29.95 1014 10 16.0934 0 0
5:53 am 05:53 Sunny 80 26.7 62 16.7 54 54 Calm 29.96 1015 10 16.0934 0 0
6:53 am 06:53 Sunny 81 27.2 60 15.6 49 49 SSE 5 7 29.98 1015 10 16.0934 0 0
7:53 am 07:53 Sunny 84 28.9 61 16.1 46 46 SE 7 11 30 1016 10 16.0934 0 0
8:53 am 08:53 Sunny 87 30.6 60 15.6 40 40 ESE 10 17 30 1016 10 16.0934 0 0
9:53 am 09:53 Sunny 88 31.1 60 15.6 39 39 E 7 11 30.01 1016 10 16.0934 0 0
10:53 am 10:53 Sunny 91 32.8 58 14.4 33 33 SE 10 17 30 1016 10 16.0934 0 0
11:53 am 11:53 Sunny 94 34.4 55 12.8 27 27 SSE 9 15 29.98 1015 10 16.0934 0 0
12:53 pm 12:53 Sunny 98 36.7 50 10 20 20 SSE 9 15 29.96 1015 10 16.0934 0 0
1:53 pm 13:53 Sunny 101 38.3 45 7.2 15 15 SSW 13 20 29.92 1013 10 16.0934 0 0
2:53 pm 14:53 Sunny 101 38.3 43 6.1 14 14 SE 7 11 29.89 1012 10 16.0934 0 0
3:53 pm 15:53 Sunny 103 39.4 40 4.4 11 11 VRB 3 6 29.87 1011 10 16.0934 0 0
4:53 pm 16:53 Sunny 102 38.9 46 7.8 15 15 SE 13 20 29.85 1011 10 16.0934 0 0
5:53 pm 17:53 Sunny 102 38.9 45 7.2 14 14 SSW 9 15 29.83 1010 10 16.0934 0 0
6:53 pm 18:53 Sunny 101 38.3 45 7.2 15 15 E 6 9 29.83 1010 10 16.0934 0 0
7:53 pm 19:53 Clear 98 36.7 45 7.2 16 16 ESE 5 7 29.84 1011 10 16.0934 0 0
8:53 pm 20:53 Clear 99 37.2 35 1.7 11 11 WNW 7 11 29.85 1011 10 16.0934 0 0
9:53 pm 21:53 Clear 95 35 36 2.2 13 13 W 5 7 29.88 1012 10 16.0934 0 0
10:53 pm 22:53 Clear 92 33.3 37 2.8 14 14 N 3 6 29.88 1012 10 16.0934 0 0
11:53 pm 23:53 Clear 91 32.8 37 2.8 15 15 NW 3 6 29.88 1012 10 16.0934 0 0

Powered by AerisWeather